User: anonymous   Login
Location: Montney
(56.4501°N, 120.9265°W)
Time: 00:49:52
(UTC+00:00)
Language:

Envisat - Orbit

View from above orbital plane
View from above orbital plane
View from above satellite
View from above satellite

Ground track
Ground track

The orbit data is extracted from the following two-line orbital elements,

1 27386U 02009A   22180.57039149  .00000040  00000-0  26597-4 0  9995
2 27386  98.1835 161.1098 0001334  90.5789  20.6199 14.38135102 65272
Epoch (UTC): 29 June 2022 13:41:21
Eccentricity: 0.0001334
inclination: 98.1835°
perigee height: 764 km
apogee height: 765 km
right ascension of ascending node: 161.1098°
argument of perigee: 90.5789°
revolutions per day: 14.38135102
mean anomaly at epoch: 20.6199°
orbit number at epoch: 6527

The dashed part of the orbit path shows where the satellite is in the earth's shadow,  

DLR